Theta_e
280 280 281 281 281 281 281 281 282 283 285 285 285 286 287 287 288 287 287 288 288 288 289 289 289 290 290 291 292 292 292 292 289 290 293 293 294 295 295 294 299 298 298
279 281 281 281 281 280 280 281 282 284 285 285 285 285 286 286 286 286 285 286 286 286 287 287 287 289 288 290 290 290 291 293 290 288 290 291 291 292 294 293 293 293 293
279 280 280 280 279 279 280 281 282 282 283 284 285 284 284 285 285 286 286 285 285 286 286 286 287 288 287 288 289 289 290 292 292 291 290 291 291 289 288 287 287 287 291
279 279 279 279 279 278 280 280 283 281 283 283 284 282 282 282 283 285 285 285 286 286 287 287 287 287 286 287 287 287 289 289 290 291 290 291 292 289 287 288 287 286 286
276 276 276 277 277 279 279 280 283 281 282 282 281 280 280 280 282 284 286 286 284 283 284 284 285 285 285 286 285 285 286 286 287 288 286 288 289 286 287 287 288 285 285
274 274 270 271 273 280 278 280 282 281 281 282 279 278 278 280 283 286 287 284 281 280 280 280 281 282 283 285 286 287 287 285 285 285 286 288 290 289 289 288 286 285 286
272 270 270 269 274 280 280 281 281 282 281 282 277 277 276 277 283 286 286 282 279 278 278 279 279 281 282 283 284 286 287 288 288 286 285 288 290 292 290 287 286 286 286
269 269 268 268 273 280 280 281 281 281 281 280 275 276 273 275 283 286 286 278 280 280 280 280 280 280 282 283 282 282 283 283 283 283 283 283 287 291 294 292 289 285 285
268 268 268 269 274 278 280 280 281 280 280 279 274 273 270 271 281 284 284 280 278 277 279 281 280 281 284 284 279 278 279 280 282 284 285 286 287 293 292 288 286 286 282
269 270 269 270 276 279 279 277 280 280 280 280 275 270 269 269 279 283 283 280 274 276 277 280 281 281 283 283 279 278 275 276 278 279 279 280 281 284 287 288 288 287 283
273 271 270 271 273 276 274 273 279 279 279 277 269 268 268 269 272 282 283 281 280 278 279 278 279 282 281 282 281 279 279 278 278 277 278 278 279 279 280 282 284 286 285
273 273 273 272 274 275 273 273 280 277 271 270 267 270 271 271 278 280 281 281 281 277 277 278 278 281 280 280 279 280 279 278 277 276 276 275 276 277 278 278 279 279 280
271 272 271 272 274 276 274 275 276 272 270 270 271 269 270 273 273 280 280 280 278 275 276 277 279 278 278 275 278 278 275 273 275 274 274 274 275 277 279 279 279 278 277
271 270 271 272 272 272 276 275 275 273 271 272 271 271 268 270 272 274 275 272 274 272 272 270 274 275 275 274 273 273 272 273 272 272 273 274 275 276 276 277 277 276 275
272 271 271 272 273 273 274 274 275 273 275 271 272 271 267 268 273 279 279 273 269 273 264 263 266 267 268 268 269 269 269 270 270 271 271 271 272 273 273 276 276 275 273
272 271 272 272 272 273 273 272 280 280 281 282 281 276 273 278 280 281 280 280 278 276 262 259 263 265 265 264 264 265 266 266 266 270 270 269 269 270 271 272 272 273 272
275 273 272 272 272 272 272 273 272 275 282 283 283 281 280 279 279 279 279 277 276 269 257 257 258 261 261 262 262 262 261 262 262 264 265 267 269 268 269 269 270 270 268
275 273 273 273 273 273 273 273 273 274 276 276 279 281 281 280 279 279 278 270 260 261 254 255 255 256 258 259 259 258 259 261 261 261 262 262 263 266 267 267 267 266 266
274 273 273 272 272 273 273 273 274 273 273 274 269 274 269 279 279 279 276 260 256 255 253 254 253 254 255 254 255 255 256 257 257 258 257 259 260 263 261 262 263 264 265
275 274 273 272 271 271 272 273 273 272 270 269 268 269 261 267 263 260 255 254 254 254 253 253 252 251 251 251 251 253 256 256 256 257 256 257 257 259 259 259 259 261 261
274 273 273 272 271 272 272 273 273 273 271 270 270 268 270 268 267 261 257 256 260 257 256 253 251 251 249 249 250 252 255 255 253 254 255 254 254 255 255 258 259 258 259
274 272 272 272 272 271 272 273 273 272 272 271 266 266 278 264 264 263 260 260 259 258 256 256 253 251 250 252 251 252 252 252 251 252 254 254 255 255 256 257 257 256 256
273 271 271 272 272 270 271 273 273 273 272 272 270 268 270 269 265 264 263 261 258 256 254 255 255 251 248 250 250 252 254 252 252 252 255 254 254 254 255 254 254 254 252
272 272 271 272 272 271 272 272 273 273 273 271 270 270 270 269 266 265 263 260 257 254 255 255 255 256 250 249 249 249 249 249 249 251 254 255 254 253 253 252 252 251 252
271 271 271 271 272 272 272 272 272 273 273 271 271 270 270 269 266 264 261 260 259 257 254 253 253 254 255 253 250 249 251 256 251 253 253 254 254 252 251 251 247 249 248
269 271 272 272 272 272 272 272 272 272 272 272 271 271 270 269 268 265 262 260 259 258 256 254 253 254 254 253 253 254 256 259 255 255 254 255 253 251 250 250 248 249 249
Wind_Speed
6 5 6 5 4 3 3 4 5 4 6 7 7 8 9 9 8 8 9 11 11 11 11 11 11 12 10 10 10 10 11 11 14 11 9 10 12 8 8 5 6 7 6
6 6 6 4 3 2 3 5 5 6 7 7 7 8 8 9 9 9 10 10 11 12 12 12 14 10 13 12 10 13 12 12 12 19 12 7 8 7 8 6 3 3 4
6 6 5 5 3 3 4 5 4 5 6 6 7 7 8 9 10 10 10 11 11 12 12 13 13 13 13 11 12 11 11 11 12 12 11 6 8 3 4 3 2 1 2
7 6 6 5 5 4 4 5 4 5 6 5 6 6 8 9 10 10 9 10 11 9 10 11 12 13 14 14 12 13 12 11 12 11 10 9 8 3 2 3 3 1 1
7 6 6 4 4 5 4 5 5 5 5 5 5 6 7 7 6 9 11 7 6 8 9 10 10 11 19 20 11 12 12 11 10 9 10 11 10 3 4 3 3 2 1
7 8 5 5 5 4 5 5 5 5 5 4 4 5 7 6 15 18 10 5 6 6 8 8 9 12 13 20 21 23 18 12 12 9 9 11 7 4 4 4 3 3 3
8 6 6 6 6 5 6 5 5 4 3 4 4 5 6 6 15 17 12 4 5 5 7 8 9 8 12 12 16 20 17 17 11 5 9 12 11 7 5 4 4 3 3
8 7 7 6 6 6 7 6 6 3 3 2 4 5 5 6 14 16 13 4 5 6 7 8 10 13 11 14 10 9 5 3 4 5 7 9 10 12 9 9 7 5 6
9 8 8 8 7 7 9 8 6 3 3 3 4 5 4 6 13 15 12 5 6 6 7 8 10 12 18 20 8 8 6 3 7 11 13 12 17 16 8 6 6 7 3
9 10 8 9 9 11 10 6 5 3 4 4 4 4 5 5 11 13 12 3 5 6 6 8 13 13 21 18 9 7 5 5 7 5 5 6 9 8 10 2 8 9 5
6 7 7 9 10 8 6 4 4 3 6 6 3 4 4 3 5 12 13 6 7 6 6 7 7 20 18 19 16 8 7 5 7 5 5 5 7 8 8 8 8 4 3
7 7 8 9 8 7 7 4 7 4 4 5 4 4 2 4 6 8 11 11 10 4 6 6 7 18 17 17 12 15 15 10 5 5 5 7 7 8 8 9 12 13 12
6 7 7 6 8 7 8 7 5 4 3 4 3 2 3 3 3 9 10 10 9 4 5 9 12 14 15 11 18 19 12 7 6 7 7 6 6 6 6 7 11 15 17
7 7 6 7 7 5 5 5 5 4 4 3 3 3 2 3 3 3 2 3 5 4 7 5 8 10 12 10 7 10 7 7 7 6 5 5 6 7 8 6 7 9 13
6 6 7 6 8 7 6 6 6 4 6 4 4 3 3 2 2 5 6 3 2 4 3 3 4 5 7 8 7 8 7 8 8 7 7 6 6 7 8 6 8 10 11
7 6 6 6 6 5 6 4 11 11 12 12 10 7 3 5 2 4 7 6 7 9 5 3 4 5 6 6 7 7 6 8 6 6 6 6 6 7 7 8 9 10 11
9 8 7 7 6 7 6 6 6 5 11 13 12 10 9 5 4 2 4 7 7 4 3 2 2 3 3 4 4 5 5 6 4 5 6 6 6 6 8 8 8 9 9
8 6 8 8 8 7 7 7 6 7 8 5 6 9 9 7 6 4 6 5 4 5 2 1 2 2 2 3 3 3 4 5 7 7 7 6 6 5 7 7 7 7 7
9 7 7 6 7 8 7 7 7 7 6 6 2 2 1 8 6 6 6 4 3 0 1 1 1 1 2 2 2 3 3 4 3 4 4 5 5 5 6 6 7 10 9
8 10 10 8 7 7 7 8 8 8 6 6 6 6 2 3 1 2 0 2 3 2 2 2 2 2 1 2 2 2 3 4 4 5 4 5 5 5 6 6 5 7 7
6 6 10 7 8 8 8 9 9 8 8 8 8 7 13 6 5 4 3 3 4 4 4 3 3 2 1 2 2 3 4 3 3 4 4 4 3 5 4 6 6 6 6
8 8 9 9 7 8 9 9 9 9 9 9 5 6 20 4 4 5 4 4 4 4 3 4 4 3 3 3 3 3 3 3 2 3 4 4 4 5 4 6 6 5 5
7 8 8 7 8 7 8 9 9 10 9 9 8 8 8 7 6 5 6 5 4 4 4 4 4 3 1 2 2 3 4 4 3 3 5 4 4 4 4 5 4 5 4
7 8 8 8 8 8 9 10 10 12 10 9 9 9 10 8 8 7 5 4 4 3 4 4 4 6 4 3 2 2 2 3 3 3 5 6 5 5 5 5 4 5 5
7 8 8 9 9 10 9 9 10 10 10 10 9 9 9 8 7 6 5 5 5 6 5 4 4 6 6 7 5 4 4 6 5 5 4 6 7 7 5 5 4 4 4
6 8 8 8 9 9 10 10 10 10 11 10 10 9 10 9 8 7 7 7 6 4 6 4 5 8 8 5 6 6 7 8 7 7 5 5 6 5 4 6 6 4 6
Wind_Direction
200 200 204 211 220 248 266 277 280 295 299 293 289 292 293 291 287 285 283 281 276 277 274 277 280 284 280 274 266 260 258 258 266 281 274 286 280 266 275 264 291 308 315
201 196 205 207 220 270 290 288 292 294 292 291 294 297 298 294 291 287 284 283 280 280 281 280 279 274 277 273 271 269 266 261 261 274 273 267 274 264 265 266 276 288 303
191 192 200 209 218 255 272 285 290 284 284 289 297 299 300 297 292 284 276 277 278 276 275 275 278 282 278 274 270 268 272 269 270 272 276 265 271 231 245 246 239 277 292
189 190 200 201 206 226 251 269 270 278 283 286 298 305 304 299 296 292 291 282 275 280 289 288 286 284 282 279 272 271 272 272 271 271 273 273 275 234 214 213 263 196 305
179 189 201 187 190 225 257 268 273 279 276 282 307 302 294 299 297 308 290 288 305 302 306 302 294 290 287 279 274 270 266 265 266 270 275 268 262 227 201 201 208 128 269
179 201 181 177 195 211 252 259 261 271 280 289 308 300 311 323 313 310 333 322 312 301 304 302 298 296 292 292 289 280 270 262 256 257 256 263 272 220 189 190 151 146 222
185 181 184 184 196 202 232 244 252 258 272 297 306 308 304 305 302 328 350 336 306 308 304 307 312 305 307 294 294 284 274 259 236 295 270 262 269 230 189 183 169 154 167
193 188 178 186 202 200 225 240 252 240 278 310 296 289 295 298 318 338 354 320 311 304 306 314 314 313 314 325 319 303 280 276 267 266 268 277 289 265 231 206 179 106 83
199 198 190 183 199 206 229 236 244 228 262 280 264 283 286 289 331 337 344 341 319 306 315 321 321 322 331 338 334 321 316 305 303 281 277 292 311 259 184 127 142 150 120
200 203 183 184 199 213 224 215 223 210 256 263 274 270 278 295 327 333 342 337 321 331 322 325 328 335 345 353 346 331 323 319 314 327 324 346 349 14 55 175 166 169 134
177 175 180 189 202 202 208 202 206 228 260 268 283 288 285 279 327 336 344 344 336 334 326 331 335 349 350 4 4 348 360 345 338 351 358 2 14 28 33 46 54 78 109
172 181 188 191 199 195 198 210 229 222 240 265 283 291 290 301 349 340 350 347 338 335 329 328 332 354 5 3 14 17 16 9 6 21 30 23 23 36 42 58 63 63 54
172 187 183 177 195 189 185 202 209 205 201 243 243 258 289 307 323 344 345 355 352 346 330 334 349 360 6 8 19 24 20 9 12 32 29 25 15 18 33 61 68 72 63
188 189 173 180 189 188 186 191 196 195 198 219 224 245 272 304 329 320 329 356 353 6 2 338 8 15 24 15 11 17 10 16 16 18 14 12 19 31 37 23 66 76 71
184 179 177 182 188 186 204 192 203 210 184 190 212 200 192 270 270 340 350 350 330 356 8 357 360 2 10 6 10 20 17 13 20 12 17 23 32 39 38 35 59 72 84
182 177 182 179 186 184 189 214 230 225 216 221 220 186 231 228 226 21 18 358 10 22 48 28 6 15 21 1 4 1 24 22 5 7 27 29 37 41 50 49 54 66 78
211 179 167 172 182 184 184 186 195 238 216 212 214 199 202 215 198 134 67 50 32 56 71 18 47 19 359 2 3 16 360 360 344 36 27 21 38 44 52 59 65 73 65
201 187 177 178 179 183 188 188 175 181 192 189 215 210 207 215 219 203 128 68 24 26 80 97 31 6 3 12 13 12 2 16 20 18 31 35 35 39 56 58 57 78 78
186 187 188 171 179 179 181 180 182 184 187 183 139 232 350 212 234 178 128 115 140 217 160 103 162 3 11 22 18 20 30 36 36 58 21 34 20 60 61 48 57 51 61
195 187 178 178 169 177 180 182 183 186 179 184 186 193 168 105 204 243 20 133 135 174 178 166 167 139 121 75 34 26 62 49 41 42 51 60 44 51 65 65 47 70 62
184 180 177 170 180 184 186 193 190 187 193 193 203 180 183 187 195 204 194 204 167 164 174 169 169 146 156 105 87 71 67 64 63 69 59 44 42 81 72 76 77 74 86
174 175 182 187 179 187 193 191 188 191 195 192 182 184 196 185 190 194 198 205 191 157 155 153 160 168 177 158 151 113 97 98 78 78 77 63 66 75 76 83 83 79 78
175 168 179 186 190 185 187 192 190 191 194 194 176 177 194 186 195 197 194 181 182 162 155 153 152 149 177 176 159 150 137 166 171 142 112 95 78 75 67 80 86 78 65
179 176 183 188 185 189 195 195 196 194 191 187 180 183 185 181 183 194 186 162 159 154 153 157 163 157 156 173 160 142 131 126 123 122 116 114 106 93 89 80 76 88 91
176 181 188 192 193 196 194 197 195 193 192 189 185 184 178 172 169 175 169 168 169 162 165 163 158 162 169 169 169 161 160 125 124 120 100 95 106 103 92 90 102 83 83
184 193 198 196 197 195 195 195 195 191 192 188 185 184 177 174 173 166 166 165 169 166 153 159 168 164 163 165 165 153 143 135 128 122 116 114 116 107 95 101 92 90 107